Regional Weather Roundup
Issued by NWS

Home | Current Version | Previous Version | Graphics & Text | Print | Product List | Glossary On
Versions: 1 2 3 4 5 6 7 8 9 10 11 12 13 14 15 16 17 18 19 20 21 22 23 24 25 26 27 28 29 30 31 32 33 34 35 36 37 38 39 40 41 42 43 44 45 46 47 48 49 50
000
ASUS43 KLOT 250106
RWRIL

ILLINOIS REGIONAL WEATHER ROUNDUP
NATIONAL WEATHER SERVICE CHICAGO/ROMEOVILLE IL
700 PM CST SAT JAN 24 2015

NOTE: "FAIR" INDICATES FEW OR NO CLOUDS BELOW 12,000 FEET WITH NO
SIGNIFICANT WEATHER AND/OR OBSTRUCTIONS TO VISIBILITY.

* THESE STATIONS ARE NOT UNDER NWS QUALITY CONTROL. THEY ALSO MAY NOT
  REPORT WEATHER SUCH AS PRECIPITATION OR FOG.

ILZ001-002-007-009-015-016-024-250200-
NORTHWEST ILLINOIS

CITY           SKY/WX    TMP DP  RH WIND       PRES   REMARKS
MOLINE         CLOUDY    39  32  76 S3        29.65F
STERLING*      CLOUDY    36  32  87 CALM      29.67S
SAVANNA*       CLOUDY    36  32  86 S5        29.66S WCI  32
$$

ILZ003-004-008-010-011-017-018-250200-
NORTH CENTRAL ILLINOIS

CITY           SKY/WX    TMP DP  RH WIND       PRES   REMARKS
ROCKFORD       CLOUDY    30  27  88 SE5       29.67F WCI  25
FREEPORT*      CLOUDY    31  30  96 CALM      29.67F
ROCHELLE*      PTCLDY    31  30  98 CALM      29.67S FOG
DE KALB*       PTCLDY    28  27  96 S3        29.67F FOG
PERU*          MOCLDY    40  37  89 SW7       29.68F
$$

ILZ005-006-012>014-019>023-250200-
NORTHEAST ILLINOIS

CITY           SKY/WX    TMP DP  RH WIND       PRES   REMARKS
CHICAGO-OHARE  MOCLDY    32  29  88 SW5       29.67F WCI  27
CHICAGO-MIDWAY MOCLDY    35  30  82 W5        29.68F WCI  31
AURORA         CLEAR     31  28  89 CALM      29.68S FOG
LANSING*       PTCLDY    33  31  90 W5        29.70R WCI  29
JOLIET*        PTCLDY    30  29  96 CALM      29.69F FOG
WAUKEGAN       CLOUDY    33  30  88 W5        29.66R WCI  29
DUPAGE AIRPORT PTCLDY    31  28  89 CALM      29.67S
KANKAKEE*      PTCLDY    33  32  96 SW5       29.70S WCI  29
WHEELING       CLOUDY    34  30  85 W5        29.68F WCI  30
MORRIS*        PTCLDY    36  35  96 W3        29.68S
ROMEOVILLE*    PTCLDY    32  31  97 CALM      29.68F
NORTHERLY ISL    N/A     36  31  82 SW9         N/A  WCI  29
$$

LMZ740>746-250200-
SOUTHERN LAKE MICHIGAN

STATION/POSITION SKY/WX   TEMP    WIND        PRES    VSBY  WAVE
                          AIR SEA DIR/SP/G                  HT/PER
                          (F)     (DEG/KT/KT) (MB)    (MI)  (FT/S)
WAUKEGAN HARBOR            33     260/  9/ 13   N/A
HARRISON CRIB              35     250/ 10/ 13   N/A
BURNHAM HARBOR             36     260/  8/ 10   N/A
CALUMET HARBOR             36     250/  4/  7   N/A
MICHIGAN CITY              35     210/ 12/ 13   N/A
$$

ILZ025>027-034>036-040-047-049-050-058-095>099-250200-
WEST-CENTRAL ILLINOIS

CITY           SKY/WX    TMP DP  RH WIND       PRES   REMARKS
QUINCY         CLOUDY    43  32  65 SW8       29.70S
GALESBURG*     CLOUDY    38  34  85 S6        29.68F WCI  34
MACOMB*        CLOUDY    39  34  82 SW7       29.72S WCI  34
JACKSONVILLE*  CLOUDY    45  34  66 S3        29.73S
PITTSFIELD*    CLOUDY    46  34  63 SW6       29.73S
$$

ILZ028>032-037-038-041>044-048-051>054-059>061-250200-
CENTRAL ILLINOIS

CITY           SKY/WX    TMP DP  RH WIND       PRES   REMARKS
PONTIAC        CLEAR     37  34  91 SW3       29.71R
BLOOMINGTON    PTCLDY    39  35  85 SW9       29.71F WCI  33
DECATUR        CLEAR     37  33  85 SW7       29.74F WCI  32
PEORIA         CLOUDY    39  33  79 SW6       29.70F WCI  35
LACON*         CLOUDY    39  34  80 SW5       29.69F
LINCOLN*       MOCLDY    38  34  86 CALM      29.73S
SPRINGFIELD    MOCLDY    42  34  73 S7        29.74S
TAYLORVILLE    PTCLDY    36  32  87 SW8       29.75S WCI  29
$$

ILZ033-039-045-046-055>057-062-063-250200-
EAST-CENTRAL ILLINOIS

CITY           SKY/WX    TMP DP  RH WIND       PRES   REMARKS
CHAMPAIGN      CLEAR     36  33  89 SW8       29.73S WCI  30
DANVILLE*      CLEAR     36  34  92 SW8       29.70F WCI  30
RANTOUL*       CLEAR     36  35  93 SW8       29.72S WCI  30
MATTOON        CLEAR     39  32  76 S7        29.75S WCI  34
PARIS*         CLEAR     35  33  92 SW5       29.76F WCI  31
$$

ILZ079-100>102-250200-
SOUTHWEST ILLINOIS

CITY           SKY/WX    TMP DP  RH WIND       PRES   REMARKS
BELLEVILLE     PTCLDY    44  32  63 SW5       29.77S
CAHOKIA*       MOCLDY    50  32  50 SW6       29.77S
SPARTA*        PTCLDY    49  31  49 SW3       29.80S
$$

ILZ064>066-069>071-074>076-080>082-084>086-088>090-092>094-250200-
SOUTH-CENTRAL ILLINOIS

CITY           SKY/WX    TMP DP  RH WIND       PRES   REMARKS
CARBONDALE     PTCLDY    41  31  67 SW7       29.82R
CAIRO*         CLEAR     45  32  61 S8        29.85S
EFFINGHAM*     CLEAR     37  30  75 CALM      29.78F
MARION         CLEAR     41  32  70 S7        29.82F
MT. VERNON     PTCLDY    37  27  65 CALM      29.80S
CENTRALIA*     PTCLDY    40  31  71 S7        29.78S
SALEM*         PTCLDY    43  34  70 S6        29.78S
METROPOLIS*    CLEAR     42  32  67 S6        29.84F
$$

ILZ067-068-072-073-078-083-087-091-250200-
SOUTHEAST ILLINOIS

CITY           SKY/WX    TMP DP  RH WIND       PRES   REMARKS
LAWRENCEVILLE  CLEAR     35  30  82 S7        29.80S WCI  29
FLORA*         CLEAR     34  31  89 S3        29.79F
FAIRFIELD*     CLEAR     40  33  74 S6        29.79S
HARRISBURG*    CLEAR     40  32  70 SW5       29.84S
ROBINSON*      CLEAR     33  30  89 S6        29.80S WCI  28
CARMI*         CLEAR     45  34  65 S9        29.82R
$$

ABBREVIATIONS USED IN REMARKS
   TC - TEMPERATURE IN CELSIUS
  WCI - WIND CHILL INDEX
   HX - HEAT INDEX
  VSB - VISIBILITY
$$




USA.gov is the U.S. government's official web portal to all federal, state and local government web resources and services.